Location: Limerick
(52.6650°N, 8.6230°W)
Time: 19:15:07
(UTC+01:00)

ISS - Pass Details

Date: 02 September 2019
Orbit: 411 x 421 km, 51.6° (Epoch: 17 October)

Event Time Altitude Azimuth Distance (km) Brightness Sun altitude
Exits shadow 05:18:30 20° 206° (SSW) 1,023 -2.3 -13.0°
Maximum altitude 05:20:13 34° 154° (SSE) 713 -2.7 -12.8°
Drops below altitude 10° 05:23:17 10° 88° (E) 1,497 0.0 -12.4°
Sets 05:25:30 0° 79° (E) 2,365 1.5 -12.1°
